Showing default

AETHER-6, 67377

Orbit data source: Space-Track

AETHER-6, 67377 is a payload satellite owned by Kepler Comms (CA) in SSO that was launched on Sun, 11 Jan 2026 UTC via an FALCON 9 launch vehicle from the Air Force Western Test Range (AFWTR). Payload-class satellites include a variety of spacecraft equipped with specific instruments for various scientific and technological missions. These include communications satellites like Starlink; space stations such as the ISS; scientific satellites like the Hubble; Earth observation satellites from companies like Planet Labs, Umbra, and HawkEye 360; GPS; miniature CubeSats for education and research; and military/defense satellites.

Loading next visibility...
Identifier
67377, 2026-004Q
Orbit
SSO
Country
Flag of CACA
Related business
Manufacturer
Kepler Comms
Mission
Operational Commercial Communications
Bus & Motor
KEPLER GEN2B, Unknown motor
Mass
300 kg wet, 300 kg dry
Launch date (UTC)
2026-01-11 (4 months ago)
Launch vehicle
FALCON 9
Launch site
Air Force Western Test Range (AFWTR)
Object type
Payload
Rocket body
Debris
Shape & HBR
Box + 2 Pan, 7.6 m
Radar Cross Section
4.448 m²

Expand to show TLE details & history
Last TLE update: 12 hours ago

TLE from 12 hours ago
0 AETHER-6
1 67377U 26004Q   26146.24679884  .00000711  00000-0  86950-4 0  9990
2 67377  97.8033 145.2508 0002258 180.0492 180.0724 14.86247533 20027
Epoch: 2026-05-26T05:55Z
TLE epoch observation values (Epoch: 2026-05-26T05:55:23.419Z)
Latitude
-0.00002°
Longitude
172.58024°
Altitude
614.284 km
Speed
7.551 km/s
True Right ascension
09h 41m 00s
True Declination
0° 00' 00"
Sunlit
Object was in daylight at epoch
Visualization orbit readout
Latitude
Unknown
Longitude
Unknown
Altitude
Unknown
Speed
Unknown
Apparent Right ascension
Unknown
Apparent Declination
Unknown
Sunlit
N/A
Visualization observer readout
Local Sidereal Time
03:36:21
Azimuth
Unknown
Elevation
Unknown
Doppler factor
Unknown
Orbital elements
Apogee altitude
608.278 km
Perigee altitude
605.124 km
Semi-major axis
6,984.838 km
Eccentricity
0.00023
Inclination
97.8033°
RAAN
145.2508°
Arg. of periapsis
180.0492°
True anomaly
180.07237°
Mean anomaly
180.0724°
Eccentric anomaly
180.07238°
Mean motion
3.71799 °/min
Orbital period
96.83 mins
BSTAR
0.00008695
Loading maneuver chart data...
Computing Atmospheric mass density...
Loading historical data...
Loading historical data...
Loading historical data...
Loading historical data...
Loading historical data...
Loading historical data...
Loading historical data...

Documentation

Showing up to 5 results
|